Regional Weather Roundup
Issued by NWS

Home | Current Version | Previous Version | Graphics & Text | Print | Product List | Glossary On
Versions: 1 2 3 4 5 6 7 8 9 10 11 12 13 14 15 16 17 18 19 20 21 22 23 24 25 26 27 28 29 30 31 32 33 34 35 36 37 38 39 40 41 42 43 44 45 46 47 48 49 50
000
ASUS43 KMPX 122101
RWRMN
WEATHER ROUNDUP FOR MINNESOTA
NATIONAL WEATHER SERVICE TWIN CITIES/CHANHASSEN MN
400 PM CDT SAT JUL 12 2014


NOTE: "FAIR" INDICATES FEW OR NO CLOUDS BELOW 12,000 FEET WITH NO
SIGNIFICANT WEATHER AND/OR OBSTRUCTIONS TO VISIBILITY. N/A MEANS
CURRENT SKY AND/OR WEATHER CONDITIONS ARE NOT AVAILABLE.

MNZ060>063-068>070-122200-
   Twin Cities Metro

CITY           SKY/WX    TMP DP  RH WIND       PRES   REMARKS
TWIN CITIES    CLOUDY    72  68  87 W6        29.98F
ST PAUL        LGT RAIN  70  67  90 W7        29.98F
CRYSTAL        CLOUDY    72  67  84 W6        29.97F
BLAINE         CLOUDY    73  70  88 SW8       29.98
LAKEVILLE      DRIZZLE   68  66  94 NW14      29.96F
EDEN PRAIRIE   LGT RAIN  71  68  90 W3        29.98F
SOUTH ST PAUL  LGT RAIN  71  67  88 NW8       29.97F
LAKE ELMO      DRIZZLE   70  68  94 SW6       29.99F
$$
MNZ001>005-007-008-013>017-022>024-027-028-122200-
   Northwest Minnesota

CITY           SKY/WX    TMP DP  RH WIND       PRES   REMARKS
BEMIDJI        CLOUDY    73  55  52 W14G22    29.94F
HALLOCK        SUNNY     81  50  34 W16G31    29.87F
ROSEAU         SUNNY     77  57  50 W17G25    29.87F
WARROAD        MOSUNNY   75  57  53 W22G29    29.86F
THIEF RVR FALL PTSUNNY   75  55  50 W18G24    29.92F
CROOKSTON      MOSUNNY   79  57  47 W17       29.93F
FOSSTON        PTSUNNY   75  54  46 W12G20    29.95F
DETROIT LAKES  PTSUNNY   75  57  53 W12G17    30.00F
MOORHEAD       MOSUNNY   79  55  44 W12G17    29.97F
PARK RAPIDS    PTSUNNY   75  58  55 W12       29.97F
$$
MNZ006-009>011-018-025>026-122200-
   North Central Minnesota

CITY           SKY/WX    TMP DP  RH WIND       PRES   REMARKS
BAUDETTE       PTSUNNY   75  54  47 SW12G28   29.87F
FLAG ISLAND    MOSUNNY   73  52  46 W20G33    29.82S
INTL FALLS     PTSUNNY   74  54  49 SW15G25   29.87F
WASKISH        PTSUNNY   73  61  64 SW16      29.90F
BIG FORK       CLOUDY    75  57  53 SW10      29.93F
LONGVILLE      CLOUDY    73  61  64 SW8       29.95F
GRAND RAPIDS   CLOUDY    73  55  53 W8        29.95F
CRANE LAKE     PTSUNNY   72  55  56 SW6       29.90F
ORR            PTSUNNY   73  54  49 W7        29.88F
COOK           PTSUNNY   75  55  50 S7        29.92F
$$
MNZ012-019>021-037-122200-
   Northeast Minnesota

CITY           SKY/WX    TMP DP  RH WIND       PRES   REMARKS
DULUTH         CLOUDY    73  58  59 W8        29.95F
ELY            CLOUDY    72  55  56 SW7       29.92F
HIBBING        CLOUDY    75  58  55 SW8       29.93F
EVELETH        CLOUDY    72  55  56 SW9       29.95F
DULUTH HARBOR  CLOUDY    73  63  68 SW6       29.93F
TWO HARBORS    CLOUDY    72  59  64 W7        29.91F
SILVER BAY     CLOUDY    72  63  73 SW5       29.91F
GRAND MARAIS     N/A     55  48  77 VRB3      29.91F
G MARAIS ARPRT CLOUDY    64  52  63 S5        29.95F
$$
MNZ029>031-032-039>041-046>048-054>057-064-122200-
   West Central Minnesota

CITY           SKY/WX    TMP DP  RH WIND       PRES   REMARKS
FERGUS FALLS   PTSUNNY   75  55  50 W9        29.99F
WHEATON        PTSUNNY   73  63  68 NW7       30.01F
MORRIS         PTSUNNY   75  63  64 W8        29.99F
ALEXANDRIA     CLOUDY    73  60  63 NW9       30.01F
ELBOW LAKE     FAIR      75  61  60 W10       30.00F
WADENA         PTSUNNY   72  57  60 W8        29.98F
GLENWOOD       CLOUDY    72  61  68 NW9       30.01S
APPLETON       PTSUNNY   75  63  64 W6        29.99F
BENSON         CLOUDY    75  61  60 NW5       29.99F
ORTONVILLE     PTSUNNY   75  61  60 W8        30.01S
MADISON        PTSUNNY   77  64  65 W7        30.01S
WILLMAR        FAIR      72  61  68 CALM      30.00F
$$
MNZ033>034-036-042>043-049>051-058-059-122200-
   Central Minnesota

CITY           SKY/WX    TMP DP  RH WIND       PRES   REMARKS
ST CLOUD       CLOUDY    71  64  78 W5        29.97F
SAUK CENTRE    FAIR      72  62  71 NW9       29.99F
PAYNESVILLE    HVY RAIN  67  62  84 CALM      29.99F
AITKIN         CLOUDY    75  63  64 SW5       29.95F
PINE RIVER     CLOUDY    72  61  68 W7        29.99F
BRAINERD       CLOUDY    77  59  53 W10       29.97F
STAPLES        CLOUDY    72  57  60 W10       29.98F
LONG PRAIRIE   FAIR      70  61  73 W7        30.00F
LITTLE FALLS   CLOUDY    70  59  68 W6        29.98F
LITCHFIELD     DRIZZLE   73  70  88 N6        29.99F
BUFFALO        DRIZZLE   71  65  80 W6        29.99F
MAPLE LAKE     DRIZZLE   72  67  86 CALM      29.99F
$$
MNZ037-044-045-052-053-122200-
   East Central Minnesota

CITY           SKY/WX    TMP DP  RH WIND       PRES   REMARKS
PRINCETON      LGT RAIN  72  66  83 SW5       29.97F
MORA           CLOUDY    70  63  78 NW5       29.98F
CAMBRIDGE      RAIN      73  63  68 W5        29.95F
RUSH CITY      CLOUDY    69  64  84 CALM      29.96F
MOOSE LAKE     CLOUDY    72  61  68 W6        29.93F
HINCKLEY       FAIR      70  64  83 W3        29.96F
CLOQUET        CLOUDY    73  55  53 W8        29.95F
MCGREGOR       CLOUDY    72  59  64 W6        29.96F
$$
MNZ071>073-080-081-089-090-097-098-122200-
   Southwest Minnesota

CITY           SKY/WX    TMP DP  RH WIND       PRES   REMARKS
MONTEVIDEO     CLOUDY    73  66  78 CALM      30.00F
GRANITE FALLS  CLOUDY    73  63  69 CALM      30.01F
CANBY          PTSUNNY   72  65  79 W6        30.02S
MARSHALL       CLOUDY    72  64  78 CALM      29.99F
REDWOOD FALLS  CLOUDY    72  66  81 N5        29.98F
OLIVIA         CLOUDY    72  63  73 CALM      29.97F
PIPESTONE      PTSUNNY   79  64  61 E5        30.01F
WINDOM         MOSUNNY   79  63  57 N9        30.01F
WORTHINGTON    MOSUNNY   79  64  61 N7        30.02F
JACKSON        MOSUNNY   79  64  61 NE7       30.01F
TRACY          PTSUNNY   72  66  82 CALM      30.00F
SLAYTON        MOSUNNY   75  63  66 CALM      30.02F
$$
MNZ065>067-074>077-082>085-091>093-122200-
   South Central Minnesota

CITY           SKY/WX    TMP DP  RH WIND       PRES   REMARKS
MANKATO        CLOUDY    72  64  78 NW8       29.99F
NEW ULM        CLOUDY    72  70  94 NW3       30.00F
ST JAMES       PTSUNNY   79  66  65 N7        30.00F
FAIRMONT       PTSUNNY   79  64  61 NW9       29.99F
GLENCOE        LGT RAIN  73  66  80 NW5       29.99F
FARIBAULT      CLOUDY    73  64  73 NW6       29.99S
OWATONNA       CLOUDY    75  64  69 NW10      29.99S
WASECA         CLOUDY    77  63  61 NW10      30.01S
ALBERT LEA     PTSUNNY   72  68  88 CALM      29.99F
$$
MNZ078>079-086>088-094>096-122200-
   Southeast Minnesota

CITY           SKY/WX    TMP DP  RH WIND       PRES   REMARKS
ROCHESTER      LGT RAIN  66  64  93 S9        30.01F
RED WING       CLOUDY    72  64  78 W3        29.96F
STANTON        CLOUDY    72  66  82 NW3       29.96F
DODGE CENTER   CLOUDY    72  66  83 SW8       29.99F
WINONA         RAIN      70  64  83 SW7       29.99R
AUSTIN         CLOUDY    70  66  88 SW3       29.99F
PRESTON        LGT RAIN  65  63  94 CALM      30.02F
$$
ABBREVIATIONS USED IN REMARKS
   TC - TEMPERATURES IN CELSIUS
  WCI - WIND CHILL INDEX
   HX - HEAT INDEX
  VSB - VISIBILITY
$$



USA.gov is the U.S. government's official web portal to all federal, state and local government web resources and services.